When you browse on this site, cookies collect data to enhance your experience and personalize the content and advertising you see.
Visit our Privacy Policy to learn more. By continuing to use the site, you agree to this use of cookies and data.
  • In Denmark
  • List of Countries
  • For 7 days
  • Water Temperature
  • Satellite Maps
  • Weather Map
  • Weather Widgets
  • user-avatar
    Login

    Hourly Weather Pontypridd

    Today, 22 April, Monday

    Time Temperature Precipitation Wind Pressure Humidity
    00:00 +12°C° 0 mm 2 mps 748 mmHg 83%
    01:00 +12°C° 0 mm 2 mps 747 mmHg 85%
    02:00 +10°C° 0 mm 2 mps 747 mmHg 86%
    03:00 +9°C° 0 mm 2 mps 746 mmHg 87%
    04:00 +9°C° 0 mm 3 mps 746 mmHg 86%
    05:00 +9°C° 0 mm 3 mps 745 mmHg 84%
    06:00 +8°C° 0 mm 4 mps 745 mmHg 77%
    07:00 +11°C° 0 mm 4 mps 744 mmHg 72%
    08:00 +12°C° 0 mm 4 mps 744 mmHg 67%
    09:00 +14°C° 0 mm 4 mps 743 mmHg 61%
    10:00 +16°C° 0 mm 5 mps 743 mmHg 62%
    11:00 +17°C° 0 mm 5 mps 742 mmHg 62%
    12:00 +20°C° 0 mm 5 mps 742 mmHg 63%
    13:00 +20°C° 0.1 mm 5 mps 742 mmHg 63%
    14:00 +20°C° 0.1 mm 6 mps 741 mmHg 63%
    15:00 +19°C° 0.1 mm 6 mps 740 mmHg 64%
    16:00 +17°C° 0.1 mm 5 mps 740 mmHg 69%
    17:00 +17°C° 0.1 mm 4 mps 740 mmHg 74%
    18:00 +15°C° 0.1 mm 4 mps 740 mmHg 79%
    19:00 +14°C° 0 mm 3 mps 740 mmHg 82%
    20:00 +13°C° 0 mm 3 mps 740 mmHg 85%
    21:00 +12°C° 0 mm 3 mps 740 mmHg 88%
    22:00 +12°C° 0 mm 3 mps 740 mmHg 89%
    23:00 +12°C° 0 mm 2 mps 739 mmHg 90%

    Tomorrow, 23 April, Tuesday

    Time Temperature Precipitation Wind Pressure Humidity
    00:00 +12°C° 0 mm 2 mps 739 mmHg 91%
    01:00 +12°C° 0 mm 2 mps 739 mmHg 89%
    02:00 +11°C° 0 mm 3 mps 738 mmHg 88%
    03:00 +11°C° 0 mm 3 mps 737 mmHg 86%
    04:00 +11°C° 0 mm 3 mps 737 mmHg 87%
    05:00 +11°C° 0 mm 4 mps 737 mmHg 88%
    06:00 +11°C° 0 mm 4 mps 737 mmHg 89%
    07:00 +12°C° 0 mm 4 mps 737 mmHg 85%
    08:00 +14°C° 0 mm 4 mps 737 mmHg 81%
    09:00 +17°C° 0 mm 4 mps 737 mmHg 77%
    10:00 +17°C° 0 mm 5 mps 736 mmHg 74%
    11:00 +19°C° 0 mm 5 mps 736 mmHg 71%
    12:00 +21°C° 0 mm 5 mps 736 mmHg 69%
    13:00 +21°C° 0.3 mm 5 mps 736 mmHg 70%
    14:00 +20°C° 0.3 mm 6 mps 736 mmHg 71%
    15:00 +20°C° 0.3 mm 6 mps 735 mmHg 71%
    16:00 +19°C° 0.2 mm 5 mps 735 mmHg 75%
    17:00 +19°C° 0.2 mm 4 mps 735 mmHg 79%
    18:00 +18°C° 0.2 mm 4 mps 735 mmHg 82%
    19:00 +15°C° 0 mm 4 mps 735 mmHg 85%
    20:00 +14°C° 0 mm 3 mps 735 mmHg 89%
    21:00 +13°C° 0 mm 3 mps 734 mmHg 92%
    22:00 +12°C° 0 mm 3 mps 734 mmHg 92%
    23:00 +12°C° 0 mm 4 mps 734 mmHg 92%

    Day after tomorrow, 24 April, Wednesday

    Time Temperature Precipitation Wind Pressure Humidity
    00:00 +11°C° 0 mm 4 mps 734 mmHg 91%
    01:00 +10°C° 0 mm 4 mps 733 mmHg 92%
    02:00 +10°C° 0 mm 4 mps 733 mmHg 92%
    03:00 +8°C° 0 mm 4 mps 732 mmHg 93%
    04:00 +10°C° 1 mm 4 mps 732 mmHg 94%
    05:00 +10°C° 1 mm 4 mps 732 mmHg 95%
    06:00 +10°C° 1 mm 4 mps 732 mmHg 96%
    07:00 +10°C° 1.6 mm 4 mps 733 mmHg 95%
    08:00 +8°C° 1.6 mm 4 mps 733 mmHg 93%
    09:00 +8°C° 1.6 mm 4 mps 734 mmHg 92%
    10:00 +9°C° 0.1 mm 5 mps 734 mmHg 86%
    11:00 +10°C° 0.1 mm 5 mps 734 mmHg 81%
    12:00 +11°C° 0.1 mm 6 mps 735 mmHg 76%
    13:00 +11°C° 0.4 mm 7 mps 735 mmHg 75%
    14:00 +11°C° 0.4 mm 7 mps 735 mmHg 74%
    15:00 +12°C° 0.4 mm 8 mps 735 mmHg 73%
    16:00 +11°C° 0.1 mm 7 mps 735 mmHg 75%
    17:00 +11°C° 0.1 mm 6 mps 734 mmHg 76%
    18:00 +10°C° 0.1 mm 6 mps 734 mmHg 77%
    19:00 +9°C° 0 mm 7 mps 734 mmHg 80%
    20:00 +8°C° 0 mm 7 mps 733 mmHg 83%
    21:00 +7°C° 0 mm 8 mps 733 mmHg 86%
    22:00 +7°C° 0.5 mm 8 mps 733 mmHg 87%
    23:00 +8°C° 0.5 mm 7 mps 733 mmHg 88%

    25 April, Thursday

    Time Temperature Precipitation Wind Pressure Humidity
    00:00 +8°C° 0.5 mm 7 mps 732 mmHg 90%
    01:00 +8°C° 0.2 mm 7 mps 732 mmHg 90%
    02:00 +8°C° 0.2 mm 6 mps 732 mmHg 89%
    03:00 +7°C° 0.2 mm 6 mps 732 mmHg 89%
    04:00 +7°C° 0 mm 6 mps 732 mmHg 89%
    05:00 +7°C° 0 mm 6 mps 731 mmHg 89%
    06:00 +7°C° 0 mm 6 mps 731 mmHg 89%
    07:00 +6°C° 0.3 mm 8 mps 731 mmHg 86%
    08:00 +7°C° 0.3 mm 9 mps 731 mmHg 83%
    09:00 +8°C° 0.3 mm 10 mps 731 mmHg 80%
    10:00 +7°C° 1 mm 10 mps 731 mmHg 84%
    11:00 +7°C° 1 mm 9 mps 731 mmHg 88%
    12:00 +7°C° 1 mm 8 mps 731 mmHg 92%
    13:00 +7°C° 0.3 mm 9 mps 732 mmHg 89%
    14:00 +8°C° 0.3 mm 11 mps 733 mmHg 87%
    15:00 +8°C° 0.3 mm 12 mps 734 mmHg 84%
    16:00 +8°C° 0 mm 10 mps 735 mmHg 82%
    17:00 +9°C° 0 mm 8 mps 736 mmHg 80%
    18:00 +9°C° 0 mm 7 mps 737 mmHg 78%
    19:00 +9°C° 0 mm 7 mps 738 mmHg 79%
    20:00 +8°C° 0 mm 7 mps 739 mmHg 80%
    21:00 +8°C° 0 mm 7 mps 740 mmHg 81%
    22:00 +8°C° 0 mm 7 mps 740 mmHg 82%
    23:00 +8°C° 0 mm 6 mps 740 mmHg 83%

    26 April, Friday

    Time Temperature Precipitation Wind Pressure Humidity
    00:00 +7°C° 0 mm 6 mps 740 mmHg 83%
    01:00 +7°C° 0 mm 6 mps 741 mmHg 85%
    02:00 +7°C° 0 mm 6 mps 741 mmHg 87%
    03:00 +7°C° 0 mm 5 mps 741 mmHg 89%
    04:00 +7°C° 0 mm 5 mps 741 mmHg 91%
    05:00 +7°C° 0 mm 4 mps 742 mmHg 92%
    06:00 +8°C° 0 mm 3 mps 742 mmHg 93%
    07:00 +9°C° 0.1 mm 3 mps 743 mmHg 92%
    08:00 +10°C° 0.1 mm 3 mps 744 mmHg 90%
    09:00 +12°C° 0.1 mm 2 mps 745 mmHg 89%
    10:00 +11°C° 0.2 mm 4 mps 746 mmHg 87%
    11:00 +9°C° 0.2 mm 6 mps 747 mmHg 86%
    12:00 +9°C° 0.2 mm 8 mps 748 mmHg 85%
    13:00 +9°C° 0 mm 8 mps 749 mmHg 81%
    14:00 +9°C° 0 mm 8 mps 749 mmHg 78%
    15:00 +9°C° 0 mm 8 mps 750 mmHg 75%
    16:00 +7°C° 0 mm 8 mps 750 mmHg 76%
    17:00 +7°C° 0 mm 8 mps 750 mmHg 76%
    18:00 +6°C° 0 mm 7 mps 750 mmHg 77%
    19:00 +6°C° 0.2 mm 8 mps 750 mmHg 82%
    20:00 +6°C° 0.2 mm 8 mps 750 mmHg 87%
    21:00 +7°C° 0.2 mm 8 mps 750 mmHg 92%
    22:00 +6°C° 0.1 mm 8 mps 750 mmHg 89%
    23:00 +5°C° 0.1 mm 8 mps 751 mmHg 86%

    27 April, Saturday

    Time Temperature Precipitation Wind Pressure Humidity
    00:00 +5°C° 0.1 mm 8 mps 751 mmHg 83%
    01:00 +4°C° 0 mm 7 mps 751 mmHg 84%
    02:00 +4°C° 0 mm 7 mps 752 mmHg 84%
    03:00 +4°C° 0 mm 6 mps 752 mmHg 84%
    04:00 +4°C° 0 mm 6 mps 753 mmHg 83%
    05:00 +4°C° 0 mm 6 mps 753 mmHg 83%
    06:00 +4°C° 0 mm 6 mps 753 mmHg 82%
    07:00 +5°C° 0 mm 6 mps 753 mmHg 79%
    08:00 +8°C° 0 mm 6 mps 753 mmHg 76%
    09:00 +9°C° 0 mm 7 mps 753 mmHg 73%
    10:00 +9°C° 1 mm 7 mps 753 mmHg 80%
    11:00 +9°C° 1 mm 7 mps 752 mmHg 87%
    12:00 +9°C° 1 mm 8 mps 752 mmHg 95%
    13:00 +10°C° 1.5 mm 9 mps 751 mmHg 95%
    14:00 +9°C° 1.5 mm 10 mps 751 mmHg 94%
    15:00 +11°C° 1.5 mm 11 mps 751 mmHg 94%
    16:00 +11°C° 0.2 mm 11 mps 751 mmHg 94%
    17:00 +11°C° 0.2 mm 11 mps 751 mmHg 94%
    18:00 +11°C° 0.2 mm 10 mps 752 mmHg 95%
    19:00 +11°C° 0.2 mm 10 mps 752 mmHg 95%
    20:00 +11°C° 0.2 mm 10 mps 752 mmHg 95%
    21:00 +11°C° 0.2 mm 10 mps 753 mmHg 95%
    22:00 +11°C° 0.1 mm 9 mps 753 mmHg 95%
    23:00 +11°C° 0.1 mm 9 mps 753 mmHg 95%
    Show more